Location: Althorst
(53.6379°N, 10.7715°E)
Time: 11:35:17
(UTC+00:00)

USA 267 - Pass Details

Date: 10 December 2019
Orbit: 1100 x 1107 km, 123.0° (Epoch: 19 January)

Event Time Altitude Azimuth Distance (km) Brightness Sun altitude
Rises 16:06:03 0° 132° (SE) 3,908 5.9 -9.4°
Reaches altitude 10° 16:08:34 10° 136° (SE) 2,953 5.3 -9.8°
Maximum altitude 16:15:00 59° 215° (SW) 1,254 3.9 -10.6°
Drops below altitude 10° 16:21:28 10° 295° (WNW) 2,966 6.1 -11.5°
Sets 16:24:01 0° 299° (WNW) 3,927 6.8 -11.9°
